Location: Prairie State College
(41.5244°N, 87.6382°W)
Time: 03:00:57
(UTC-05:00)

ISS - All Passes

Search period start: 22 October 2014 00:00
Search period end: 01 November 2014 00:00
Orbit: 413 x 416 km, 51.6° (Epoch: 21 October)

Date Brightness Start Highest point End Pass type
(mag) Time Alt. Az. Time Alt. Az. Time Alt. Az.
22 Oct - 13:47:24 10° SW 13:50:40 57° SE 13:53:57 10° ENE daylight
22 Oct - 15:24:43 10° W 15:27:34 25° NNW 15:30:25 10° NE daylight
22 Oct - 17:03:11 10° NW 17:05:08 15° N 17:07:05 10° NE daylight
22 Oct - 18:40:02 10° NW 18:42:44 22° NNE 18:45:27 10° ENE visible
22 Oct - 20:16:24 10° WNW 20:19:45 76° SW 20:23:04 10° SE visible
23 Oct - 12:58:40 10° SSW 13:01:40 31° SE 13:04:40 10° ENE daylight
23 Oct - 14:35:14 10° W 14:38:20 35° NNW 14:41:26 10° NE daylight
23 Oct - 16:13:42 10° NW 16:15:45 15° N 16:17:50 10° NNE daylight
23 Oct - 17:51:01 10° NNW 17:53:26 18° NNE 17:55:50 10° ENE daylight
23 Oct - 19:27:18 10° NW 19:30:38 63° NNE 19:33:56 10° ESE visible
23 Oct - 21:04:56 10° W 21:06:59 15° SW 21:09:02 10° S visible
24 Oct - 12:10:20 10° S 12:12:41 18° SE 12:15:03 10° E daylight
24 Oct - 13:45:50 10° WSW 13:49:07 54° NNW 13:52:24 10° NE daylight
24 Oct - 15:24:03 10° NW 15:26:22 17° NNW 15:28:41 10° NNE daylight
24 Oct - 17:01:55 10° NNW 17:04:03 16° N 17:06:10 10° NE daylight
24 Oct - 18:38:15 10° NW 18:41:25 39° NNE 18:44:35 10° E visible
24 Oct - 20:15:09 10° WNW 20:18:01 27° SW 20:20:52 10° SSE visible
25 Oct - 11:23:19 10° SE 11:23:44 10° SE 11:24:09 10° ESE daylight
25 Oct - 12:56:35 10° SW 12:59:55 89° SE 13:03:16 10° NE daylight
25 Oct - 14:34:22 10° WNW 14:36:58 21° NNW 14:39:35 10° NE daylight
25 Oct - 16:12:38 10° NNW 16:14:36 15° N 16:16:33 10° NE daylight
25 Oct - 17:49:11 10° NW 17:52:07 27° NNE 17:55:02 10° E daylight
25 Oct - 19:25:42 10° WNW 19:28:56 48° SW 19:32:09 10° SE visible
26 Oct - 12:07:32 10° SW 12:10:45 49° SE 12:13:59 10° ENE daylight
26 Oct - 13:44:40 10° W 13:47:35 27° NNW 13:50:29 10° NE daylight
26 Oct - 15:23:09 10° NW 15:25:06 15° N 15:27:03 10° NNE daylight
26 Oct - 17:00:06 10° NW 17:02:43 21° NNE 17:05:21 10° ENE daylight
26 Oct - 18:36:25 10° NW 18:39:46 87° SW 18:43:05 10° SE visible
27 Oct - 11:18:44 10° SSW 11:21:36 27° SE 11:24:29 10° ENE daylight
27 Oct - 12:55:03 10° W 12:58:12 38° NNW 13:01:21 10° NE daylight
27 Oct - 14:33:28 10° NW 14:35:35 16° N 14:37:41 10° NNE daylight
27 Oct - 16:10:55 10° NNW 16:13:15 17° NNE 16:15:34 10° ENE daylight
27 Oct - 17:47:11 10° NW 17:50:29 55° NNE 17:53:45 10° ESE daylight
27 Oct - 19:24:34 10° W 19:26:53 18° SW 19:29:12 10° S visible
28 Oct - 10:30:24 10° S 10:32:29 16° SE 10:34:35 10° E daylight
28 Oct - 12:05:33 10° WSW 12:08:50 61° NNW 12:12:09 10° NE daylight
28 Oct - 13:43:40 10° WNW 13:46:02 18° NNW 13:48:25 10° NNE daylight
28 Oct - 15:21:38 10° NNW 15:23:42 15° N 15:25:45 10° NE daylight
28 Oct - 16:57:59 10° NW 17:01:06 35° NNE 17:04:12 10° E daylight
28 Oct - 18:34:45 10° WNW 18:37:45 31° SW 18:40:43 10° SSE visible
29 Oct - 11:16:12 10° SW 11:19:30 77° SE 11:22:50 10° ENE daylight
29 Oct - 12:53:49 10° WNW 12:56:29 22° NNW 12:59:11 10° NE daylight
29 Oct - 14:32:09 10° NW 14:34:05 14° N 14:36:01 10° NE daylight
29 Oct - 16:08:47 10° NW 16:11:38 25° NNE 16:14:28 10° E daylight
29 Oct - 17:45:13 10° WNW 17:48:30 56° SW 17:51:45 10° SE daylight
30 Oct - 10:27:03 10° SSW 10:30:12 42° SE 10:33:22 10° ENE daylight
30 Oct - 12:03:59 10° W 12:06:57 29° NNW 12:09:56 10° NE daylight
30 Oct - 13:42:28 10° NW 13:44:26 15° N 13:46:24 10° NNE daylight
30 Oct - 15:19:31 10° NNW 15:22:04 20° NNE 15:24:35 10° ENE daylight
30 Oct - 16:55:48 10° NW 16:59:09 81° NE 17:02:28 10° ESE daylight
30 Oct - 18:34:08 10° WSW 18:35:22 12° SW 18:36:36 10° SSW visible
31 Oct - 09:38:12 10° S 09:40:55 23° SE 09:43:38 10° E daylight
31 Oct - 11:14:15 10° WSW 11:17:26 43° NNW 11:20:38 10° NE daylight
31 Oct - 12:52:35 10° NW 12:54:45 16° N 12:56:55 10° NNE daylight
31 Oct - 14:30:11 10° NNW 14:32:25 17° N 14:34:39 10° NE daylight
31 Oct - 16:06:27 10° NW 16:09:42 48° NNE 16:12:55 10° ESE daylight
31 Oct - 17:43:36 10° W 17:46:09 21° SW 17:48:42 10° S daylight
